Вернуться в каталог

STARLINK-36262

АктивенСвязьVLEO
NORAD 67201·PAYLOAD·🇺🇸 United States

Запущен Dec 17, 2025 с Vandenberg Space Force Base

Loading…

Ближайшие Пролёты (ближайшие 24 часа)

TLE

СвежийSource: CelesTrak SupGP

Эпоха: Sep 15, 2026, 03:33 UTC

1 67201C 25304K   26258.14840278 -.00029645  00000+0 -24858-2 0  2581
2 67201  70.0012  56.9192 0002816 266.4302 319.9486 14.98323594    19

Отслеживайте STARLINK-36262 в реальном времени с AllMySat

Download on the App Store